Regional Weather Roundup
Issued by NWS Memphis, TN

Home | Current Version | Previous Version | Text Only | Print | Product List | Glossary On
Versions: 1 2 3 4 5 6 7 8 9 10 11 12 13 14 15 16 17 18 19 20 21 22 23 24 25 26 27 28 29 30 31 32 33 34 35 36 37 38 39 40 41 42 43 44 45 46 47 48 49 50
000
ASUS44 KMEG 010310
RWRMEG
MEMPHIS CWA HOURLY WEATHER ROUNDUP
NATIONAL WEATHER SERVICE MEMPHIS TN
900 PM CST SAT FEB 28 2015

...WEST TENNESSEE...

CITY           SKY/WX    TMP DP  RH WIND       PRES   REMARKS
MEMPHIS INTL   CLOUDY    41  22  46 NE6       30.39R
NWS MEMPHIS      N/A     39 N/A N/A MISG        N/A
JACKSON        CLOUDY    41  23  48 N7        30.40R
LEXINGTON      MOCLDY    39  23  52 N6        30.38R WCI  35
SAVANNAH       PTCLDY    48  30  49 SE5       30.37R
DYERSBURG      CLOUDY    34  14  44 NE7       30.45R WCI  28
UNION CITY     PTCLDY    30  23  74 NE7       30.42R WCI  23
PARIS          CLOUDY    32  21  64 N8        30.42R WCI  25


...EASTERN ARKANSAS...

CITY           SKY/WX    TMP DP  RH WIND       PRES   REMARKS
JONESBORO      CLOUDY    30  23  75 N6        30.44S WCI  24
WEST MEMPHIS   MOCLDY    34  28  79 N10       30.40F WCI  26
BATESVILLE     CLOUDY    28  23  80 NW3       30.43F
NEWPORT        FLURRIES  30  25  82 N13       30.45F WCI  20
WALNUT RIDGE   MOCLDY    28  21  74 N9        30.45F WCI  20
BLYTHEVILLE    CLOUDY    32  26  78 N12       30.44R WCI  23
SEARCY         CLOUDY    31  25  78 N9        30.44R WCI  23
STUTTGART      CLOUDY    34  25  69 NE12      30.41S WCI  25
PINE BLUFF     CLOUDY    35  28  75 N10       30.39R WCI  27
MONTICELLO     CLOUDY    40  30  67 N5        30.35F


...NORTH MISSISSIPPI...

CITY           SKY/WX    TMP DP  RH WIND       PRES   REMARKS
TUPELO         MOCLDY    49  31  49 SE5       30.36F
OXFORD         MOCLDY    45  28  53 CALM      30.39R
OLIVE BRANCH   MOCLDY    37  27  65 N7        30.39R WCI  32
TUNICA         MOCLDY    34  30  86 N10       30.41S WCI  26
CLARKSDALE     CLOUDY    37  32  81 N8        30.40S WCI  31
CORINTH        MOCLDY    48  32  53 E5        30.35S
GREENWOOD        N/A    N/A N/A N/A MISG      30.34R
COLUMBUS       CLOUDY    48  35  59 CALM      30.39R
STARKVILLE     MOCLDY    43  37  81 CALM      30.39S
GOLDEN TRIANGL PTCLDY    46  36  66 CALM      30.39R


...SOUTHEAST MISSOURI...

CITY           SKY/WX    TMP DP  RH WIND       PRES   REMARKS
WEST PLAINS    FRZ RAIN  26  23  88 SE9       30.39F WCI  17
POPLAR BLUFF   CLOUDY    30  20  66 N6        30.45S WCI  24
CAPE GIRARDEAU CLOUDY    31  21  66 NE8       30.46F WCI  23


...NORTHWEST ALABAMA...

CITY           SKY/WX    TMP DP  RH WIND       PRES   REMARKS
MUSCLE SHOALS  CLOUDY    48  35  60 E7        30.41F


...MIDDLE TENNESSEE...

CITY           SKY/WX    TMP DP  RH WIND       PRES   REMARKS
NASHVILLE      CLOUDY    42  26  53 SE7       30.39F
CLARKSVILLE    CLOUDY    36  26  67 N8        30.43R WCI  30
COLUMBIA         N/A     48  32  53 SE6       30.37F


...WESTERN KENTUCKY...

CITY           SKY/WX    TMP DP  RH WIND       PRES   REMARKS
PADUCAH        CLOUDY    33  20  58 NE12      30.45S WCI  24
FORT CAMPBELL  CLOUDY    35  25  66 N6        30.44R WCI  30


...CENTRAL ARKANSAS...

CITY           SKY/WX    TMP DP  RH WIND       PRES   REMARKS
LITTLE ROCK    CLOUDY    34  24  67 NE9       30.40S WCI  27


SKY/WX REPORTED AS FAIR MEANS FEW OR NO CLOUDS BELOW
12 THOUSAND FEET.




USA.gov is the U.S. government's official web portal to all federal, state and local government web resources and services.